Location: Apeadero de Siete Picos
(40.7667°N, 4.0333°W)
Time: 23:38:47
(UTC+00:00)

Daily predictions for brighter satellites

Satellite Brightness Start Highest point End
(mag) Time Altitude Azimuth Time Altitude Azimuth Time Altitude Azimuth
Cosmos 2227 Rocket 2.5 20:13:09 10° NNW 20:18:48 74° WSW 20:24:25 10° SSE
Cosmos 2263 Rocket 3.8 20:14:42 10° N 20:19:05 22° NE 20:23:27 10° ESE
SPOT 3 Rocket 4.4 20:15:22 10° SE 20:19:58 34° ENE 20:24:36 10° N
Cosmos 407 Rocket 4.4 20:15:40 10° N 20:20:32 35° ENE 20:25:20 10° SE
Cosmos 371 Rocket 3.9 20:15:52 10° SSW 20:20:43 66° WNW 20:25:35 10° NNE
Cosmos 614 Rocket 4.0 20:18:06 10° NNW 20:23:18 72° ENE 20:28:30 10° SSE
Cosmos 1300 Rocket 3.8 20:19:20 10° N 20:23:34 53° E 20:27:46 10° SSE
NOSS 3-2 (C) 4.1 20:28:49 10° SSE 20:33:22 27° ESE 20:38:22 10° NE
OBJECT-B 2.5 20:32:14 10° SSW 20:35:09 32° W 20:38:05 10° NNW
NOSS 3-2 (A) 3.4 20:30:01 10° SSW 20:35:16 52° ESE 20:41:12 10° NE
Cosmos 332 Rocket 4.1 20:33:27 10° SSW 20:38:16 73° WNW 20:43:05 10° NNE
SJ-6B 4.2 20:34:45 10° S 20:38:38 41° W 20:42:32 10° NNW
Cosmos 1842 3.7 20:38:07 10° SSE 20:41:49 42° E 20:45:34 10° NNE
Cosmos 1726 3.8 20:39:32 10° NNE 20:42:06 18° ENE 20:44:15 12° ESE
Nadezhda 3 Rocket 4.3 20:36:46 10° SSW 20:42:53 73° W 20:49:04 10° N
Resurs 1-3 3.9 20:41:00 10° S 20:45:21 69° WSW 20:49:45 10° NNW
Cosmos 1766 3.2 20:41:31 10° N 20:45:23 70° E 20:49:13 10° SSE
IGS 5A 3.5 20:45:45 10° SSE 20:49:52 70° ENE 20:54:01 10° N
Aureole 2 Rocket 1.6 20:49:23 10° N 20:51:49 56° ENE 20:53:17 20° SE
Cosmos 2082 3.9 20:50:27 10° NNW 20:56:11 72° WSW 21:01:46 10° SSE
MetOp-B 4.3 20:52:27 12° SSE 20:57:19 61° ENE 21:02:37 10° N
Cosmos 1470 3.8 20:53:55 10° NNE 20:57:31 32° ENE 20:59:55 17° SE
Okean 1 Rocket 3.9 20:53:46 10° N 20:57:45 34° ENE 21:00:34 17° SE
SL-16 R/B 3.0 20:54:38 10° SSE 20:59:30 30° ESE 21:04:23 10° NE
Cosmos 1697 Rocket 4.3 20:54:40 10° SW 20:59:51 38° WNW 21:05:05 10° N
SPOT 5 4.3 20:58:02 13° ESE 21:01:34 26° ENE 21:05:45 10° NNE
Cosmos 2278 3.9 20:59:15 10° SSW 21:04:56 77° WNW 21:10:39 10° NNE
Cosmos 2322 Rocket 3.2 21:01:48 15° SSE 21:05:19 26° ESE 21:09:58 10° NE
Ariane Rocket 3.9 21:00:38 10° S 21:05:30 46° W 21:10:24 10° NNW
Cosmos 2360 Rocket 3.8 21:06:00 14° ESE 21:07:12 15° E 21:10:13 10° ENE
SWAS 4.4 21:03:16 10° SSW 21:07:34 84° ESE 21:11:53 10° NNE
Cosmos 2221 Rocket 4.4 21:03:14 10° SSW 21:07:37 52° W 21:11:59 10° N
USA 238 DEB 3.5 21:01:50 10° SSW 21:08:15 70° ESE 21:15:01 10° NE
USA 238 3.5 21:01:57 10° SSW 21:08:22 69° ESE 21:15:07 10° NE
Cosmos 1339 Rocket 4.5 21:04:39 10° S 21:10:54 83° E 21:17:05 10° N
Meteor 1-22 Rocket 4.3 21:05:12 10° N 21:11:13 90° WSW 21:16:26 13° S
Resurs 01 Rocket 2.0 21:07:37 10° S 21:11:56 62° W 21:16:19 10° NNW
USA 215 3.5 21:06:21 10° ENE 21:12:33 44° SE 21:18:44 10° SSW
Cosmos 1378 Rocket 3.4 21:08:39 10° S 21:12:57 80° E 21:17:20 10° N
CZ-2C R/B 3.8 21:10:22 10° NNE 21:15:10 84° ESE 21:19:56 10° SSW
Okean 2 Rocket 3.8 21:11:36 10° NNW 21:15:57 52° W 21:20:19 10° S
BREEZE-M DEB (TANK) 2.0 21:14:34 10° SW 21:16:50 61° SE 21:20:26 10° ENE
Cosmos 1624 Rocket 4.1 21:13:21 10° SSW 21:18:40 81° WNW 21:24:00 10° NNE
Genesis I 3.8 21:16:50 21° SSE 21:18:45 33° ESE 21:22:17 10° NE
Lacrosse 5 3.4 21:14:26 10° NNW 21:18:52 29° NNE 21:23:12 10° E
Meteor 2-20 4.5 21:16:50 12° S 21:22:28 65° E 21:28:30 10° NNE
Cosmos 1626 4.4 21:24:21 11° E 21:24:21 11° E 21:25:19 10° ENE
Cosmos 2151 Rocket 4.2 21:20:17 10° NNW 21:24:35 53° W 21:28:28 12° S
Cosmos 1980 Rocket 3.4 21:20:53 10° SW 21:26:15 44° WNW 21:31:39 10° NNE
SPOT 1/Viking Rocket 3.6 21:29:21 18° S 21:33:10 77° WSW 21:38:20 10° NNW
Terra 2.8 21:30:59 22° ESE 21:33:12 34° ENE 21:37:28 10° N
Cosmos 1140 Rocket 3.9 21:28:20 10° NNW 21:33:30 59° WSW 21:37:13 19° S
Cosmos 1953 3.8 21:30:17 10° NNE 21:33:33 23° ENE 21:34:36 21° E
CENTAUR R/B 2.5 21:28:41 10° SW 21:34:24 85° NW 21:41:17 10° NE
Cosmos 1400 Rocket 4.4 21:32:51 10° NNW 21:36:15 29° W 21:39:35 10° SSW
Cosmos 292 Rocket 3.8 21:32:49 17° S 21:36:30 63° ESE 21:41:17 10° NNE
USA 245 3.7 21:34:55 24° S 21:37:25 75° WSW 21:42:29 10° NNW
Cosmos 1674 3.5 21:37:32 29° ESE 21:38:02 30° E 21:41:21 10° NNE
Cosmos 220 Rocket 4.1 21:33:54 10° SSW 21:38:13 79° WNW 21:42:32 10° NNE
H-2A R/B 4.3 21:38:15 10° NE 21:41:54 31° E 21:42:27 30° ESE
Cosmos 1452 Rocket 3.7 21:39:10 22° S 21:42:21 54° ESE 21:47:30 10° NNE
CARTOSAT-1 3.5 21:41:41 29° SSE 21:43:49 89° E 21:48:10 10° NNW
Cosmos 1908 4.4 21:44:20 10° NNE 21:47:43 27° ENE 21:48:21 26° E
Cosmos 1707 3.0 21:47:56 21° SSW 21:50:21 64° W 21:54:13 10° N
Cosmos 1975 Rocket 3.1 21:49:02 36° SSE 21:50:33 56° E 21:54:50 10° NNE
ARIANE 5 R/B 2.6 21:48:39 30° S 21:50:47 80° WSW 21:55:15 10° NNW
Cosmos 2100 Rocket 4.4 21:44:58 10° N 21:51:11 51° ENE 21:54:16 29° SE
Cosmos 1844 Rocket 4.2 21:47:19 10° N 21:52:01 26° NE 21:55:01 17° E
Cosmos 1025 Rocket 3.8 21:55:42 32° ESE 21:56:19 33° E 22:00:16 10° NNE
Cosmos 2333 Rocket 3.7 22:00:00 19° E 22:00:00 19° E 22:03:52 10° ENE
Cosmos 2263 Rocket 2.5 21:57:49 10° NNW 22:03:25 58° WSW 22:06:17 28° S
CZ-4B DEB 4.4 22:08:07 59° ENE 22:08:07 59° ENE 22:11:11 10° N
Cosmos 1340 4.2 22:10:26 22° ENE 22:10:26 22° ENE 22:12:50 10° NE
Spot 2 Rocket 4.2 22:07:15 24° SSW 22:10:00 48° W 22:14:54 10° NNW
Cosmos 1726 4.0 22:14:14 10° NW 22:17:13 24° W 22:18:43 18° SW
Cosmos 1331 Rocket 4.3 22:16:12 42° SE 22:17:15 48° ESE 22:22:18 10° NNE
In-Cosmos 22 4.4 22:13:57 20° SSW 22:17:31 61° WNW 22:22:46 10° N
Cosmos 2173 Rocket 4.0 22:11:08 10° N 22:17:32 77° E 22:20:19 36° SSE
Cosmos 2016 Rocket 4.3 22:13:19 10° N 22:19:16 51° ENE 22:21:23 36° SE
NOSS 8 (A) 4.4 22:19:36 58° WSW 22:20:04 71° NW 22:23:04 10° NNE
Cosmos 1315 Rocket 4.4 22:19:08 10° NNW 22:22:45 30° W 22:24:26 22° SW
NOSS 3-2 (C) 4.3 22:18:26 10° WSW 22:23:48 47° NW 22:29:58 10° NNE
Cosmos 1741 Rocket 4.0 22:20:59 10° NNW 22:26:15 73° ENE 22:27:44 47° SE
ERS-1 Rocket 3.6 22:25:10 31° SSW 22:27:14 49° W 22:32:07 10° NNW
Cosmos 1725 Rocket 4.3 22:21:38 10° N 22:27:39 51° E 22:29:40 37° SE
Cosmos 2219 Rocket 3.1 22:31:32 30° ESE 22:31:32 30° ESE 22:36:23 10° NE
Cosmos 1802 Rocket 3.9 22:26:32 10° N 22:32:48 80° E 22:35:08 42° SSE
GEOS 3 Rocket 3.8 22:33:47 41° ESE 22:35:40 69° NE 22:41:00 10° NNW
Cosmos 1544 Rocket 3.4 22:32:53 10° N 22:37:22 80° E 22:37:55 67° SSE
SPOT 5 4.0 22:37:16 27° SW 22:39:25 39° W 22:44:13 10° NNW
ATLAS 3B R/B 2.9 22:39:31 41° SE 22:40:30 43° ESE 22:46:44 10° NE
Cosmos 1455 Rocket 3.6 22:38:35 10° NNW 22:42:54 51° W 22:43:49 43° SW
SL-16 R/B 3.5 22:38:12 10° SW 22:43:27 38° WNW 22:48:43 10° N
Cosmos 1461 3.8 22:42:45 10° NNW 22:46:43 38° NE 22:47:11 37° ENE
Meteor 2-5 Rocket 3.8 22:47:48 51° SE 22:48:46 59° E 22:54:13 10° NNE
Cosmos 2322 Rocket 3.2 22:43:40 10° SW 22:49:04 44° WNW 22:54:33 10° NNE
Cosmos 2360 Rocket 2.3 22:47:42 31° SW 22:50:29 73° WNW 22:56:09 10° NNE
COSMOS 2428 3.5 22:50:46 35° ESE 22:50:46 35° ESE 22:55:55 10° NE
Lacrosse 5 rocket 3.4 22:57:46 15° ENE 22:57:46 15° ENE 22:58:26 10° NE
USA 215 3.9 22:49:15 10° NE 22:55:38 56° NW 23:01:59 10° WSW
Cosmos 2322 3.7 22:57:38 55° SE 22:58:20 60° ESE 23:03:54 10° NNE
Cosmos 1626 3.0 22:58:50 40° W 22:58:57 40° WNW 23:02:28 10° N
Cosmos 2061 Rocket 4.0 22:53:18 10° N 22:59:46 82° W 23:01:48 47° S
Lacrosse 5 1.9 22:57:08 10° NW 23:02:08 60° SW 23:02:23 59° SW
Cosmos 1536 Rocket 3.5 23:05:04 73° WSW 23:05:20 77° W 23:09:50 10° N
Cosmos 1953 4.0 23:06:31 10° NW 23:09:50 25° W 23:10:16 24° W
Cosmos 1455 4.4 23:08:13 10° NNE 23:10:18 16° ENE 23:10:18 16° ENE
Terra 3.4 23:09:52 23° WSW 23:10:58 25° W 23:14:52 10° NW
Cosmos 2278 Rocket 4.1 23:09:21 10° N 23:13:34 21° NE 23:16:33 14° E
Meteor 2-10 Rocket 3.9 23:08:52 10° N 23:13:51 48° ENE 23:14:19 46° E
ATLAS CENTAUR R/B 3.0 23:10:23 10° NNW 23:14:14 30° NE 23:15:12 27° ENE
Cosmos 1300 3.2 23:11:54 10° N 23:15:05 59° NNW 23:15:05 59° NNW
Cosmos 405 4.1 23:15:53 10° NNW 23:18:19 40° NW 23:18:19 40° NW
USA 267 3.3 23:24:45 39° ESE 23:27:28 79° NE 23:34:01 10° NW
Cosmos 968 Rocket 3.7 23:28:26 10° N 23:33:29 57° ENE 23:33:58 54° E
Cosmos 1844 Rocket 3.1 23:30:41 10° NW 23:36:07 48° WSW 23:36:40 47° SW
Cosmos 1447 Rocket 4.5 23:40:09 55° SSW 23:41:36 77° W 23:47:51 10° N
COBE Rocket 3.8 23:41:58 80° S 23:42:16 89° WSW 23:47:21 10° NNW
Spot 4 4.0 23:42:45 59° W 23:42:45 59° W 23:47:29 10° NNW
Cosmos 2333 Rocket 2.6 23:41:58 42° WSW 23:43:42 60° WNW 23:49:23 10° NNE
Cosmos 2233 Rocket 4.1 23:37:59 10° NNW 23:44:01 62° W 23:45:16 51° SW
Cosmos 2058 Rocket 4.1 23:42:56 10° N 23:46:54 37° ENE 23:46:54 37° ENE
Cosmos 1980 4.3 23:49:19 41° ESE 23:49:19 41° ESE 23:54:27 10° NE
Cosmos 2228 3.2 23:44:54 10° N 23:48:51 68° NW 23:48:51 68° NW
Meteor 1-24 Rocket 4.3 23:52:15 40° WSW 23:53:18 45° WNW 23:58:27 10° N
